StationID,Date,MaxTemp,MinTemp,Precipitation,Snowfall,SnowDepth
"USW00025515","1959-06-26",,,0.00,0.00,0.00
"USW00025515","1959-06-27",,,25.00,0.00,0.00
"USW00025515","1959-06-28",,,0.00,0.00,0.00
"USW00025515","1959-06-29",,,23.00,0.00,0.00
"USW00025515","1959-06-30",,,69.00,0.00,0.00
"USW00025515","1959-07-01",,,13.00,0.00,0.00
"USW00025515","1959-07-02",,,3.00,0.00,0.00
"USW00025515","1959-07-03",,,3.00,0.00,0.00
"USW00025515","1959-07-04",,,3.00,0.00,0.00
"USW00025515","1959-07-05",,,13.00,0.00,0.00
"USW00025515","1959-07-06",,,33.00,0.00,0.00
"USW00025515","1959-07-07",,,5.00,0.00,0.00
"USW00025515","1959-07-08",,,137.00,0.00,0.00
"USW00025515","1959-07-09",,,8.00,0.00,0.00
"USW00025515","1959-07-10",,,10.00,0.00,0.00
"USW00025515","1959-07-11",,,0.00,0.00,0.00
"USW00025515","1959-07-12",,,13.00,0.00,0.00
"USW00025515","1959-07-13",,,30.00,0.00,0.00
"USW00025515","1959-07-14",,,30.00,0.00,0.00
"USW00025515","1959-07-15",,,13.00,0.00,0.00
"USW00025515","1959-07-16",,,20.00,0.00,0.00
"USW00025515","1959-07-17",,,20.00,0.00,0.00
"USW00025515","1959-07-18",,,8.00,0.00,0.00
"USW00025515","1959-07-19",,,170.00,0.00,0.00
"USW00025515","1959-07-20",,,33.00,0.00,0.00
"USW00025515","1959-07-21",,,74.00,0.00,0.00
"USW00025515","1959-07-22",,,0.00,0.00,0.00
"USW00025515","1959-07-23",,,5.00,0.00,0.00
"USW00025515","1959-07-24",,,5.00,0.00,0.00
"USW00025515","1959-07-25",,,25.00,0.00,0.00
"USW00025515","1959-07-26",,,36.00,0.00,0.00
"USW00025515","1959-07-27",,,20.00,0.00,0.00
"USW00025515","1959-07-28",,,0.00,0.00,0.00
"USW00025515","1959-07-29",,,8.00,0.00,0.00
"USW00025515","1959-07-30",,,5.00,0.00,0.00
"USW00025515","1959-07-31",,,23.00,0.00,0.00
"USW00025515","1959-08-01",,,69.00,0.00,0.00
"USW00025515","1959-08-02",,,15.00,0.00,0.00
"USW00025515","1959-08-03",,,0.00,0.00,0.00
"USW00025515","1959-08-04",,,3.00,0.00,0.00
"USW00025515","1959-08-05",,,33.00,0.00,0.00
"USW00025515","1959-08-06",,,36.00,0.00,0.00
"USW00025515","1959-08-07",,,13.00,0.00,0.00
"USW00025515","1959-08-08",,,0.00,0.00,0.00
"USW00025515","1959-08-09",,,0.00,0.00,0.00
"USW00025515","1959-08-10",,,5.00,0.00,0.00
"USW00025515","1959-08-11",,,152.00,0.00,0.00
"USW00025515","1959-08-12",,,257.00,0.00,0.00
"USW00025515","1959-08-13",,,25.00,0.00,0.00
"USW00025515","1959-08-14",,,180.00,0.00,0.00
"USW00025515","1959-08-15",,,15.00,0.00,0.00
"USW00025515","1959-08-16",,,25.00,0.00,0.00
"USW00025515","1959-08-17",,,0.00,0.00,0.00
"USW00025515","1959-08-18",,,5.00,0.00,0.00
"USW00025515","1959-08-19",,,10.00,0.00,0.00
"USW00025515","1959-08-20",,,0.00,0.00,0.00
"USW00025515","1959-08-21",,,8.00,0.00,0.00
"USW00025515","1959-08-22",,,0.00,0.00,0.00
"USW00025515","1959-08-23",,,0.00,0.00,0.00
"USW00025515","1959-08-24",,,0.00,0.00,0.00
"USW00025515","1959-08-25",,,3.00,0.00,0.00
"USW00025515","1959-08-26",,,3.00,0.00,0.00
"USW00025515","1959-08-27",,,0.00,0.00,0.00
"USW00025515","1959-08-28",,,0.00,0.00,0.00
"USW00025515","1959-08-29",,,5.00,0.00,0.00
"USW00025515","1959-08-30",,,152.00,0.00,0.00
"USW00025515","1959-08-31",,,0.00,0.00,0.00
"USW00025515","1959-09-01",,,76.00,0.00,0.00
"USW00025515","1959-09-02",,,460.00,0.00,0.00
"USW00025515","1959-09-03",,,170.00,0.00,0.00
"USW00025515","1959-09-04",,,43.00,0.00,0.00
"USW00025515","1959-09-05",,,0.00,0.00,0.00
"USW00025515","1959-09-06",,,10.00,0.00,0.00
"USW00025515","1959-09-07",,,64.00,0.00,0.00
"USW00025515","1959-09-08",,,69.00,0.00,0.00
"USW00025515","1959-09-09",,,3.00,0.00,0.00
"USW00025515","1959-09-10",,,5.00,0.00,0.00
"USW00025515","1959-09-11",,,0.00,0.00,0.00
"USW00025515","1959-09-12",,,0.00,0.00,0.00
"USW00025515","1959-09-13",,,5.00,0.00,0.00
"USW00025515","1959-09-14",,,3.00,0.00,0.00
"USW00025515","1959-09-15",,,0.00,0.00,0.00
"USW00025515","1959-09-16",,,15.00,0.00,0.00
"USW00025515","1959-09-17",,,5.00,0.00,0.00
"USW00025515","1959-09-18",,,5.00,0.00,0.00
"USW00025515","1959-09-19",,,0.00,0.00,0.00
"USW00025515","1959-09-20",,,33.00,0.00,0.00
"USW00025515","1959-09-21",,,3.00,0.00,0.00
"USW00025515","1959-09-22",,,20.00,0.00,0.00
"USW00025515","1959-09-23",,,23.00,0.00,0.00
"USW00025515","1959-09-24",,,33.00,0.00,0.00
"USW00025515","1959-09-25",,,20.00,0.00,0.00
"USW00025515","1959-09-26",,,5.00,0.00,0.00
"USW00025515","1959-09-27",,,69.00,0.00,0.00
"USW00025515","1959-09-28",,,244.00,0.00,0.00
"USW00025515","1959-09-29",,,81.00,0.00,0.00
"USW00025515","1959-09-30",,,13.00,0.00,0.00
"USW00025515","1959-10-01",,,8.00,0.00,0.00
"USW00025515","1959-10-02",,,0.00,0.00,0.00
"USW00025515","1959-10-03",,,0.00,0.00,0.00
"USW00025515","1959-10-04",,,0.00,0.00,0.00
"USW00025515","1959-10-05",,,0.00,0.00,0.00
"USW00025515","1959-10-06",,,0.00,0.00,0.00
"USW00025515","1959-10-07",,,0.00,0.00,0.00
"USW00025515","1959-10-08",,,0.00,0.00,0.00
"USW00025515","1959-10-09",,,0.00,0.00,0.00
"USW00025515","1959-10-10",,,0.00,0.00,0.00
"USW00025515","1959-10-11",,,5.00,0.00,0.00
"USW00025515","1959-10-12",,,0.00,0.00,0.00
"USW00025515","1959-10-13",,,0.00,0.00,0.00
"USW00025515","1959-10-14",,,13.00,0.00,0.00
"USW00025515","1959-10-15",,,5.00,0.00,0.00
"USW00025515","1959-10-16",,,10.00,0.00,0.00
"USW00025515","1959-10-17",,,84.00,0.00,0.00
"USW00025515","1959-10-18",,,5.00,0.00,0.00
"USW00025515","1959-10-19",,,282.00,0.00,0.00
"USW00025515","1959-10-20",,,0.00,0.00,0.00
"USW00025515","1959-10-21",,,0.00,0.00,0.00
"USW00025515","1959-10-22",,,124.00,0.00,0.00
"USW00025515","1959-10-23",,,5.00,0.00,0.00
"USW00025515","1959-10-24",,,0.00,0.00,0.00
"USW00025515","1959-10-25",,,48.00,0.00,0.00
"USW00025515","1959-10-26",,,38.00,0.00,0.00
"USW00025515","1959-10-27",,,13.00,0.00,0.00
"USW00025515","1959-10-28",,,23.00,0.00,0.00
"USW00025515","1959-10-29",,,0.00,0.00,0.00
"USW00025515","1959-10-30",,,5.00,0.00,0.00
"USW00025515","1959-10-31",,,10.00,0.00,0.00
"USW00025515","1959-11-01",,,23.00,0.00,0.00
"USW00025515","1959-11-02",,,157.00,0.00,0.00
"USW00025515","1959-11-03",,,25.00,0.00,0.00
"USW00025515","1959-11-04",,,10.00,0.00,0.00
"USW00025515","1959-11-05",,,5.00,0.00,0.00
"USW00025515","1959-11-06",,,10.00,25.00,25.00
"USW00025515","1959-11-07",,,0.00,0.00,25.00
"USW00025515","1959-11-08",,,18.00,18.00,25.00
"USW00025515","1959-11-09",,,0.00,0.00,0.00
"USW00025515","1959-11-10",,,109.00,0.00,0.00
"USW00025515","1959-11-11",,,3.00,0.00,0.00
"USW00025515","1959-11-12",,,163.00,0.00,0.00
"USW00025515","1959-11-13",,,20.00,0.00,0.00
"USW00025515","1959-11-14",,,0.00,0.00,0.00
"USW00025515","1959-11-15",,,0.00,0.00,0.00
"USW00025515","1959-11-16",,,0.00,0.00,0.00
"USW00025515","1959-11-17",,,18.00,0.00,0.00
"USW00025515","1959-11-18",,,38.00,0.00,0.00
"USW00025515","1959-11-19",,,84.00,0.00,0.00
"USW00025515","1959-11-20",,,71.00,25.00,25.00
"USW00025515","1959-11-21",,,10.00,0.00,0.00
"USW00025515","1959-11-22",,,0.00,0.00,0.00
"USW00025515","1959-11-23",,,38.00,0.00,0.00
"USW00025515","1959-11-24",,,23.00,0.00,0.00
"USW00025515","1959-11-25",,,0.00,0.00,0.00
"USW00025515","1959-11-26",,,13.00,0.00,0.00
"USW00025515","1959-11-27",,,28.00,112.00,127.00
"USW00025515","1959-11-28",,,0.00,10.00,127.00
"USW00025515","1959-11-29",,,0.00,8.00,102.00
"USW00025515","1959-11-30",,,30.00,97.00,178.00
"USW00025515","1959-12-01",,,8.00,5.00,152.00
"USW00025515","1959-12-02",,,0.00,0.00,127.00
"USW00025515","1959-12-03",,,13.00,81.00,203.00
"USW00025515","1959-12-04",,,13.00,8.00,203.00
"USW00025515","1959-12-05",,,0.00,0.00,178.00
"USW00025515","1959-12-06",,,0.00,0.00,178.00
"USW00025515","1959-12-07",,,3.00,0.00,152.00
"USW00025515","1959-12-08",,,3.00,25.00,178.00
"USW00025515","1959-12-09",,,25.00,51.00,229.00
"USW00025515","1959-12-10",,,0.00,0.00,229.00
"USW00025515","1959-12-11",,,0.00,0.00,203.00
"USW00025515","1959-12-12",,,0.00,0.00,203.00
"USW00025515","1959-12-13",,,3.00,0.00,203.00
"USW00025515","1959-12-14",,,0.00,51.00,254.00
"USW00025515","1959-12-15",,,5.00,25.00,279.00
"USW00025515","1959-12-16",,,3.00,25.00,305.00
"USW00025515","1959-12-17",,,5.00,0.00,305.00
"USW00025515","1959-12-18",,,0.00,0.00,305.00
"USW00025515","1959-12-19",,,13.00,127.00,432.00
"USW00025515","1959-12-20",,,3.00,3.00,432.00
"USW00025515","1959-12-21",,,13.00,13.00,381.00
"USW00025515","1959-12-22",,,0.00,0.00,381.00
"USW00025515","1959-12-23",,,0.00,0.00,381.00
"USW00025515","1959-12-24",,,0.00,0.00,381.00
"USW00025515","1959-12-25",,,3.00,25.00,406.00
"USW00025515","1959-12-26",,,0.00,0.00,406.00
"USW00025515","1959-12-27",,,38.00,38.00,406.00
"USW00025515","1959-12-28",,,0.00,0.00,406.00
"USW00025515","1959-12-29",,,0.00,0.00,406.00
"USW00025515","1959-12-30",,,0.00,0.00,305.00
"USW00025515","1959-12-31",,,0.00,0.00,356.00
"USW00025515","1960-01-01",,,140.00,203.00,483.00
"USW00025515","1960-01-02",,,3.00,3.00,457.00
"USW00025515","1960-01-03",,,25.00,13.00,533.00
"USW00025515","1960-01-04",,,0.00,0.00,533.00
"USW00025515","1960-01-05",,,8.00,8.00,508.00
"USW00025515","1960-01-06",,,0.00,0.00,508.00
"USW00025515","1960-01-07",,,13.00,0.00,483.00
"USW00025515","1960-01-08",,,5.00,0.00,0.00
"USW00025515","1960-01-09",,,0.00,0.00,0.00
"USW00025515","1960-01-10",,,3.00,0.00,0.00
"USW00025515","1960-01-11",,,13.00,0.00,0.00
"USW00025515","1960-01-12",,,13.00,0.00,0.00
"USW00025515","1960-01-13",,,13.00,0.00,0.00
"USW00025515","1960-01-14",,,0.00,0.00,0.00
"USW00025515","1960-01-15",,,775.00,762.00,533.00
"USW00025515","1960-01-16",,,272.00,25.00,559.00
"USW00025515","1960-01-17",,,28.00,0.00,559.00
"USW00025515","1960-01-18",,,3.00,0.00,559.00
"USW00025515","1960-01-19",,,0.00,0.00,559.00
"USW00025515","1960-01-20",,,3.00,0.00,559.00
"USW00025515","1960-01-21",,,5.00,5.00,610.00
"USW00025515","1960-01-22",,,25.00,0.00,0.00
"USW00025515","1960-01-23",,,13.00,0.00,0.00
"USW00025515","1960-01-24",,,5.00,0.00,0.00
"USW00025515","1960-01-25",,,8.00,0.00,0.00
"USW00025515","1960-01-26",,,0.00,0.00,0.00
"USW00025515","1960-01-27",,,18.00,0.00,0.00
"USW00025515","1960-01-28",,,0.00,0.00,0.00
"USW00025515","1960-01-29",,,0.00,0.00,0.00
"USW00025515","1960-01-30",,,0.00,0.00,0.00
"USW00025515","1960-01-31",,,0.00,0.00,0.00
"USW00025515","1960-02-01",,,0.00,0.00,0.00
"USW00025515","1960-02-02",,,25.00,25.00,25.00
"USW00025515","1960-02-03",,,25.00,25.00,25.00
"USW00025515","1960-02-04",,,25.00,25.00,25.00
"USW00025515","1960-02-05",,,0.00,0.00,0.00
"USW00025515","1960-02-06",,,10.00,10.00,0.00
"USW00025515","1960-02-07",,,51.00,51.00,51.00
"USW00025515","1960-02-08",,,36.00,,
"USW00025515","1960-02-09",,,264.00,,
"USW00025515","1960-02-10",,,0.00,0.00,
"USW00025515","1960-02-11",,,0.00,0.00,
"USW00025515","1960-02-12",,,0.00,0.00,
"USW00025515","1960-02-13",,,3.00,3.00,
"USW00025515","1960-02-14",,,5.00,5.00,
"USW00025515","1960-02-15",,,0.00,0.00,1092.00
"USW00025515","1960-02-16",,,5.00,5.00,1092.00
"USW00025515","1960-02-17",,,28.00,28.00,1118.00
"USW00025515","1960-02-18",,,8.00,10.00,1118.00
"USW00025515","1960-02-19",,,23.00,23.00,1143.00
"USW00025515","1960-02-20",,,23.00,23.00,1143.00
"USW00025515","1960-02-21",,,28.00,28.00,1168.00
"USW00025515","1960-02-22",,,0.00,0.00,1168.00
"USW00025515","1960-02-23",,,0.00,0.00,1194.00
"USW00025515","1960-02-24",,,538.00,53.00,1219.00
"USW00025515","1960-02-25",,,782.00,79.00,1295.00
"USW00025515","1960-02-26",,,33.00,33.00,1295.00
"USW00025515","1960-02-27",,,0.00,0.00,1295.00
"USW00025515","1960-02-28",,,0.00,0.00,1295.00
"USW00025515","1960-02-29",,,25.00,25.00,1321.00
"USW00025515","1960-03-01",,,0.00,0.00,1321.00
"USW00025515","1960-03-02",,,5.00,0.00,1321.00
"USW00025515","1960-03-03",,,3.00,0.00,1321.00
"USW00025515","1960-03-04",,,0.00,0.00,1321.00
"USW00025515","1960-03-05",,,0.00,0.00,1321.00
"USW00025515","1960-03-06",,,0.00,0.00,1321.00
"USW00025515","1960-03-07",,,0.00,0.00,1321.00
"USW00025515","1960-03-08",,,0.00,0.00,1321.00
"USW00025515","1960-03-09",,,0.00,0.00,1321.00
"USW00025515","1960-03-10",,,0.00,0.00,1321.00
"USW00025515","1960-03-11",,,0.00,0.00,1321.00
"USW00025515","1960-03-12",,,8.00,8.00,1346.00
"USW00025515","1960-03-13",,,51.00,51.00,1397.00
"USW00025515","1960-03-14",,,5.00,5.00,1346.00
"USW00025515","1960-03-15",,,3.00,3.00,1321.00
"USW00025515","1960-03-16",,,8.00,8.00,1372.00
"USW00025515","1960-03-17",,,10.00,10.00,1473.00
"USW00025515","1960-03-18",,,0.00,0.00,1422.00
"USW00025515","1960-03-19",,,0.00,0.00,1422.00
"USW00025515","1960-03-20",,,0.00,0.00,1422.00
"USW00025515","1960-03-21",,,0.00,0.00,1422.00
"USW00025515","1960-03-22",,,8.00,8.00,1422.00
"USW00025515","1960-03-23",,,0.00,0.00,1422.00
"USW00025515","1960-03-24",,,3.00,3.00,1422.00
"USW00025515","1960-03-25",,,0.00,0.00,1422.00
"USW00025515","1960-03-26",,,0.00,0.00,1422.00
"USW00025515","1960-03-27",,,0.00,0.00,1422.00
"USW00025515","1960-03-28",,,0.00,0.00,1422.00
"USW00025515","1960-03-29",,,0.00,0.00,1422.00
"USW00025515","1960-03-30",,,0.00,0.00,1422.00
"USW00025515","1960-03-31",,,25.00,25.00,1448.00
"USW00025515","1960-04-01",,,51.00,51.00,1473.00
"USW00025515","1960-04-02",,,0.00,0.00,1473.00
"USW00025515","1960-04-03",,,0.00,0.00,1473.00
"USW00025515","1960-04-04",,,25.00,25.00,1473.00
"USW00025515","1960-04-05",,,3.00,3.00,1473.00
"USW00025515","1960-04-06",,,3.00,3.00,1473.00
"USW00025515","1960-04-07",,,0.00,0.00,1473.00
"USW00025515","1960-04-08",,,0.00,0.00,1473.00
"USW00025515","1960-04-09",,,0.00,0.00,1473.00
"USW00025515","1960-04-10",,,8.00,8.00,1473.00
"USW00025515","1960-04-11",,,15.00,15.00,1473.00
"USW00025515","1960-04-12",,,18.00,18.00,1473.00
"USW00025515","1960-04-13",,,3.00,3.00,1473.00
"USW00025515","1960-04-14",,,0.00,0.00,1473.00
"USW00025515","1960-04-15",,,28.00,28.00,1473.00
"USW00025515","1960-04-16",,,5.00,5.00,1473.00
"USW00025515","1960-04-17",,,5.00,5.00,1473.00
"USW00025515","1960-04-18",,,8.00,8.00,1499.00
"USW00025515","1960-04-19",,,3.00,0.00,1499.00
"USW00025515","1960-04-20",,,0.00,0.00,1473.00
"USW00025515","1960-04-21",,,5.00,5.00,1473.00
"USW00025515","1960-04-22",,,25.00,25.00,1499.00
"USW00025515","1960-04-23",,,5.00,0.00,1499.00
"USW00025515","1960-04-24",,,0.00,0.00,1499.00
"USW00025515","1960-04-25",,,0.00,0.00,1499.00
"USW00025515","1960-04-26",,,0.00,0.00,1499.00
"USW00025515","1960-04-27",,,0.00,0.00,1499.00
"USW00025515","1960-04-28",,,0.00,0.00,1499.00
"USW00025515","1960-04-29",,,0.00,0.00,1499.00
"USW00025515","1960-04-30",,,25.00,25.00,1524.00
"USW00025515","1960-05-01",,,56.00,56.00,1575.00
"USW00025515","1960-05-02",,,3.00,3.00,1575.00
"USW00025515","1960-05-03",,,0.00,0.00,1524.00
"USW00025515","1960-05-04",,,3.00,3.00,1524.00
"USW00025515","1960-05-05",,,38.00,38.00,1549.00
"USW00025515","1960-05-06",,,10.00,10.00,1499.00
"USW00025515","1960-05-07",,,0.00,0.00,1499.00
"USW00025515","1960-05-08",,,0.00,0.00,1499.00
"USW00025515","1960-05-09",,,0.00,0.00,1448.00
"USW00025515","1960-05-10",,,0.00,0.00,1346.00
"USW00025515","1960-05-11",,,0.00,0.00,1321.00
"USW00025515","1960-05-12",,,3.00,3.00,1346.00
"USW00025515","1960-05-13",,,3.00,3.00,1346.00
"USW00025515","1960-05-14",,,0.00,0.00,1321.00
"USW00025515","1960-05-15",,,0.00,0.00,1270.00
"USW00025515","1960-05-16",,,0.00,0.00,1270.00
"USW00025515","1960-05-17",,,0.00,0.00,1270.00
"USW00025515","1960-05-18",,,0.00,0.00,1245.00
"USW00025515","1960-05-19",,,0.00,0.00,1219.00
"USW00025515","1960-05-20",,,0.00,0.00,1143.00
"USW00025515","1960-05-21",,,0.00,0.00,1067.00
"USW00025515","1960-05-22",,,5.00,5.00,1118.00
"USW00025515","1960-05-23",,,25.00,25.00,1321.00
"USW00025515","1960-05-24",,,5.00,5.00,1219.00
"USW00025515","1960-05-25",,,0.00,0.00,1016.00
"USW00025515","1960-05-26",,,3.00,3.00,1016.00
"USW00025515","1960-05-27",,,3.00,3.00,1016.00
"USW00025515","1960-05-28",,,5.00,5.00,1016.00
"USW00025515","1960-05-29",,,15.00,15.00,1016.00
"USW00025515","1960-05-30",,,5.00,5.00,1016.00
"USW00025515","1960-05-31",,,3.00,3.00,1016.00
"USW00025515","1960-06-01",,,0.00,0.00,965.00
"USW00025515","1960-06-02",,,0.00,0.00,914.00
"USW00025515","1960-06-03",,,0.00,0.00,889.00
"USW00025515","1960-06-04",,,0.00,0.00,889.00
"USW00025515","1960-06-05",,,5.00,0.00,762.00
"USW00025515","1960-06-06",,,0.00,0.00,508.00
"USW00025515","1960-06-07",,,5.00,5.00,457.00
"USW00025515","1960-06-08",,,18.00,0.00,381.00
"USW00025515","1960-06-09",,,18.00,0.00,381.00
"USW00025515","1960-06-10",,,0.00,0.00,254.00
"USW00025515","1960-06-11",,,0.00,0.00,127.00
"USW00025515","1960-06-12",,,0.00,0.00,76.00
"USW00025515","1960-06-13",,,0.00,0.00,0.00
"USW00025515","1960-06-14",,,5.00,0.00,0.00
"USW00025515","1960-06-15",,,3.00,0.00,0.00
"USW00025515","1960-06-16",,,8.00,0.00,0.00
"USW00025515","1960-06-17",,,0.00,0.00,0.00
"USW00025515","1960-06-18",,,0.00,0.00,0.00
"USW00025515","1960-06-19",,,13.00,0.00,0.00
"USW00025515","1960-06-20",,,0.00,0.00,0.00
"USW00025515","1960-06-21",,,5.00,0.00,0.00
"USW00025515","1960-06-22",,,0.00,0.00,0.00
"USW00025515","1960-06-23",,,13.00,0.00,0.00
"USW00025515","1960-06-24",,,15.00,0.00,0.00
"USW00025515","1960-06-25",,,5.00,0.00,0.00
"USW00025515","1960-06-26",,,0.00,0.00,0.00
"USW00025515","1960-06-27",,,0.00,0.00,0.00
"USW00025515","1960-06-28",,,3.00,0.00,0.00
"USW00025515","1960-06-29",,,0.00,0.00,0.00
"USW00025515","1960-06-30",,,5.00,0.00,0.00
"USW00025515","1960-07-01",,,5.00,0.00,0.00
"USW00025515","1960-07-02",,,18.00,0.00,0.00
"USW00025515","1960-07-03",,,5.00,0.00,0.00
"USW00025515","1960-07-04",,,3.00,0.00,0.00
"USW00025515","1960-07-05",,,0.00,0.00,0.00
"USW00025515","1960-07-06",,,0.00,0.00,0.00
"USW00025515","1960-07-07",,,0.00,0.00,0.00
"USW00025515","1960-07-08",,,0.00,0.00,0.00
"USW00025515","1960-07-09",,,0.00,0.00,0.00
"USW00025515","1960-07-10",,,0.00,0.00,0.00
"USW00025515","1960-07-11",,,0.00,0.00,0.00
"USW00025515","1960-07-12",,,0.00,0.00,0.00
"USW00025515","1960-07-13",,,0.00,0.00,0.00
"USW00025515","1960-07-14",,,3.00,0.00,0.00
"USW00025515","1960-07-15",,,0.00,0.00,0.00
"USW00025515","1960-07-16",,,0.00,0.00,0.00
"USW00025515","1960-07-17",,,0.00,0.00,0.00
"USW00025515","1960-07-18",,,0.00,0.00,0.00
"USW00025515","1960-07-19",,,0.00,0.00,0.00
"USW00025515","1960-07-20",,,0.00,0.00,0.00
"USW00025515","1960-07-21",,,0.00,0.00,0.00
"USW00025515","1960-07-22",,,0.00,0.00,0.00
"USW00025515","1960-07-23",,,8.00,0.00,0.00
"USW00025515","1960-07-24",,,5.00,0.00,0.00
"USW00025515","1960-07-25",,,5.00,0.00,0.00
"USW00025515","1960-07-26",,,5.00,0.00,0.00
"USW00025515","1960-07-27",,,3.00,0.00,0.00
"USW00025515","1960-07-28",,,5.00,0.00,0.00
"USW00025515","1960-07-29",,,5.00,0.00,0.00
"USW00025515","1960-07-30",,,5.00,0.00,0.00
"USW00025515","1960-07-31",,,20.00,0.00,0.00
"USW00025515","1960-08-01",,,13.00,0.00,0.00
"USW00025515","1960-08-02",,,3.00,0.00,0.00
"USW00025515","1960-08-03",,,18.00,0.00,0.00
"USW00025515","1960-08-04",,,8.00,0.00,0.00
"USW00025515","1960-08-05",,,28.00,0.00,0.00
"USW00025515","1960-08-06",,,8.00,0.00,0.00
"USW00025515","1960-08-07",,,0.00,0.00,0.00
"USW00025515","1960-08-08",,,0.00,0.00,0.00
"USW00025515","1960-08-09",,,0.00,0.00,0.00
"USW00025515","1960-08-10",,,0.00,0.00,0.00
"USW00025515","1960-08-11",,,8.00,0.00,0.00
"USW00025515","1960-08-12",,,5.00,0.00,0.00
"USW00025515","1960-08-13",,,0.00,0.00,0.00
"USW00025515","1960-08-14",,,8.00,0.00,0.00
"USW00025515","1960-08-15",,,10.00,0.00,0.00
"USW00025515","1960-08-16",,,13.00,0.00,0.00
"USW00025515","1960-08-17",,,8.00,0.00,0.00
"USW00025515","1960-08-18",,,23.00,0.00,0.00
"USW00025515","1960-08-19",,,0.00,0.00,0.00
"USW00025515","1960-08-20",,,0.00,0.00,0.00
"USW00025515","1960-08-21",,,3.00,0.00,0.00
"USW00025515","1960-08-22",,,3.00,0.00,0.00
"USW00025515","1960-08-23",,,3.00,0.00,0.00
"USW00025515","1960-08-24",,,0.00,0.00,0.00
"USW00025515","1960-08-25",,,3.00,0.00,0.00
"USW00025515","1960-08-26",,,8.00,0.00,0.00
"USW00025515","1960-08-27",,,8.00,0.00,0.00
"USW00025515","1960-08-28",,,30.00,0.00,0.00
"USW00025515","1960-08-29",,,25.00,0.00,0.00
"USW00025515","1960-08-30",,,8.00,0.00,0.00
"USW00025515","1960-08-31",,,0.00,0.00,0.00
"USW00025515","1960-09-01",,,3.00,0.00,0.00
"USW00025515","1960-09-02",,,0.00,0.00,0.00
"USW00025515","1960-09-03",,,0.00,0.00,0.00
"USW00025515","1960-09-04",,,0.00,0.00,0.00
"USW00025515","1960-09-05",,,0.00,0.00,0.00
"USW00025515","1960-09-06",,,15.00,0.00,0.00
"USW00025515","1960-09-07",,,5.00,0.00,0.00
"USW00025515","1960-09-08",,,0.00,0.00,0.00
"USW00025515","1960-09-09",,,0.00,0.00,0.00
"USW00025515","1960-09-10",,,46.00,0.00,0.00
"USW00025515","1960-09-11",,,25.00,0.00,0.00
"USW00025515","1960-09-12",,,30.00,0.00,0.00
"USW00025515","1960-09-13",,,15.00,0.00,0.00
"USW00025515","1960-09-14",,,10.00,0.00,0.00
"USW00025515","1960-09-15",,,13.00,0.00,0.00
"USW00025515","1960-09-16",,,8.00,0.00,0.00
"USW00025515","1960-09-17",,,0.00,0.00,0.00
"USW00025515","1960-09-18",,,0.00,0.00,0.00
"USW00025515","1960-09-19",,,0.00,0.00,0.00
"USW00025515","1960-09-20",,,0.00,0.00,0.00
"USW00025515","1960-09-21",,,0.00,0.00,0.00
"USW00025515","1960-09-22",,,3.00,0.00,0.00
"USW00025515","1960-09-23",,,0.00,0.00,0.00
"USW00025515","1960-09-24",,,0.00,0.00,0.00
"USW00025515","1960-09-25",,,3.00,0.00,0.00
"USW00025515","1960-09-26",,,0.00,0.00,0.00
"USW00025515","1960-09-27",,,13.00,0.00,0.00
"USW00025515","1960-09-28",,,8.00,0.00,0.00
"USW00025515","1960-09-29",,,0.00,0.00,0.00
"USW00025515","1960-09-30",,,0.00,0.00,0.00
"USW00025515","1960-10-01",,,0.00,0.00,0.00
"USW00025515","1960-10-02",,,0.00,0.00,0.00
"USW00025515","1960-10-03",,,23.00,0.00,0.00
"USW00025515","1960-10-04",,,10.00,0.00,0.00
"USW00025515","1960-10-05",,,8.00,0.00,0.00
"USW00025515","1960-10-06",,,10.00,10.00,0.00
"USW00025515","1960-10-07",,,8.00,8.00,0.00
"USW00025515","1960-10-08",,,3.00,0.00,0.00
"USW00025515","1960-10-09",,,0.00,0.00,0.00
"USW00025515","1960-10-10",,,0.00,0.00,0.00
"USW00025515","1960-10-11",,,15.00,0.00,0.00
"USW00025515","1960-10-12",,,0.00,0.00,0.00
"USW00025515","1960-10-13",,,18.00,0.00,0.00
"USW00025515","1960-10-14",,,3.00,0.00,0.00
"USW00025515","1960-10-15",,,8.00,8.00,0.00
"USW00025515","1960-10-16",,,0.00,0.00,0.00
"USW00025515","1960-10-17",,,0.00,0.00,0.00
"USW00025515","1960-10-18",,,0.00,0.00,0.00
"USW00025515","1960-10-19",,,5.00,0.00,0.00
"USW00025515","1960-10-20",,,13.00,0.00,0.00
"USW00025515","1960-10-21",,,10.00,10.00,0.00
"USW00025515","1960-10-22",,,8.00,0.00,0.00
"USW00025515","1960-10-23",,,3.00,3.00,0.00
"USW00025515","1960-10-24",,,0.00,0.00,0.00
"USW00025515","1960-10-25",,,0.00,0.00,0.00
"USW00025515","1960-10-26",,,0.00,0.00,0.00
"USW00025515","1960-10-27",,,8.00,0.00,0.00
"USW00025515","1960-10-28",,,8.00,0.00,0.00
"USW00025515","1960-10-29",,,0.00,0.00,0.00
"USW00025515","1960-10-30",,,28.00,28.00,0.00
"USW00025515","1960-10-31",,,3.00,0.00,0.00
"USW00025515","1960-11-01",,,0.00,0.00,0.00
"USW00025515","1960-11-02",,,5.00,5.00,0.00
"USW00025515","1960-11-03",,,5.00,5.00,51.00
"USW00025515","1960-11-04",,,0.00,0.00,51.00
"USW00025515","1960-11-05",,,8.00,23.00,51.00
"USW00025515","1960-11-06",,,0.00,0.00,25.00
"USW00025515","1960-11-07",,,0.00,0.00,25.00
"USW00025515","1960-11-08",,,0.00,0.00,0.00
"USW00025515","1960-11-09",,,0.00,0.00,0.00
"USW00025515","1960-11-10",,,0.00,0.00,0.00
"USW00025515","1960-11-11",,,0.00,0.00,0.00
"USW00025515","1960-11-12",,,8.00,8.00,0.00
"USW00025515","1960-11-13",,,15.00,0.00,0.00
"USW00025515","1960-11-14",,,0.00,0.00,0.00
"USW00025515","1960-11-15",,,5.00,5.00,0.00
"USW00025515","1960-11-16",,,0.00,0.00,0.00
"USW00025515","1960-11-17",,,0.00,0.00,0.00
"USW00025515","1960-11-18",,,0.00,0.00,0.00
"USW00025515","1960-11-19",,,0.00,0.00,0.00
"USW00025515","1960-11-20",,,3.00,3.00,0.00
"USW00025515","1960-11-21",,,8.00,8.00,0.00
"USW00025515","1960-11-22",,,0.00,0.00,25.00
"USW00025515","1960-11-23",,,8.00,0.00,25.00